Total_Precipitation_Accumulation
2.21 2.93 3.57 4.13 4.82 5.58 6.16 6.06 5.45 4.98 4.49 4.05 3.55 3.49 3.29 2.99 2.73 2.50 2.27 2.17 2.05 1.88 1.96 1.85 1.96 1.70 1.76 1.86 1.87 2.12 2.25 2.16 2.18 2.52 2.59 2.13 1.73 1.76 1.77 1.78 2.05 2.09 2.10
2.21 2.96 3.55 3.77 3.81 4.09 4.34 3.83 3.64 3.65 3.36 3.17 3.12 3.06 2.90 2.58 2.34 2.20 2.23 1.88 1.81 1.78 1.71 1.94 1.81 1.74 1.91 1.92 1.95 2.14 2.25 2.17 2.22 2.47 2.80 2.52 2.44 2.10 1.55 1.81 1.96 1.98 2.21
2.33 2.83 3.00 3.02 2.93 2.89 2.87 2.64 2.58 2.90 2.93 2.99 3.00 2.99 2.97 2.78 2.50 2.18 2.17 1.83 1.64 1.67 1.76 1.76 1.84 1.91 1.65 1.87 2.01 2.02 2.16 2.24 2.19 2.20 2.56 2.56 2.52 2.19 1.68 1.62 1.72 1.92 2.21
2.32 2.29 1.88 1.74 1.90 1.99 2.10 2.36 2.44 2.57 2.53 2.67 2.60 2.50 2.31 2.16 2.04 1.95 2.01 2.00 1.77 1.67 1.60 1.64 1.88 2.00 1.76 1.96 1.60 1.71 2.01 2.18 2.09 2.15 2.02 1.97 2.11 2.26 2.17 1.87 1.71 1.80 1.95
1.37 1.22 1.08 1.12 1.35 1.62 1.84 2.21 2.31 2.35 2.29 2.28 2.37 2.50 2.44 2.42 2.27 2.15 2.30 2.26 2.23 2.01 1.66 1.65 1.87 2.03 1.99 2.04 1.88 2.07 1.90 1.83 1.83 1.91 1.96 1.98 1.90 1.79 2.05 2.17 2.03 1.88 1.68
0.75 0.78 0.88 1.08 1.32 1.46 1.55 1.79 1.94 2.12 2.17 2.23 2.34 2.33 2.36 2.51 2.44 2.32 2.19 2.07 2.11 2.06 1.91 1.85 2.07 2.07 2.04 2.13 2.07 2.07 1.94 1.90 1.89 1.82 1.80 2.07 2.08 1.93 2.06 1.95 1.92 1.85 1.50
0.63 0.78 0.88 1.07 1.16 1.26 1.30 1.45 1.51 1.71 1.90 2.01 2.09 2.15 2.24 2.36 2.34 2.33 2.22 2.11 1.94 1.87 1.94 2.01 2.20 2.10 2.04 2.00 2.08 2.08 2.06 2.08 2.11 2.01 1.85 1.86 1.93 1.98 1.99 1.97 1.73 1.61 1.46
0.55 0.61 0.72 0.81 0.85 1.00 1.22 1.40 1.38 1.40 1.46 1.53 1.70 1.86 1.91 1.99 2.02 2.27 2.15 2.04 1.93 1.86 1.95 2.01 1.92 1.89 1.92 1.80 2.03 1.94 1.91 2.00 2.04 1.96 2.24 2.13 1.83 1.93 1.96 2.04 2.18 2.01 1.83
0.62 0.59 0.60 0.76 0.81 0.77 0.90 1.11 1.17 1.19 1.24 1.29 1.42 1.50 1.55 1.69 1.88 1.88 1.72 1.59 1.69 1.82 1.88 1.80 1.79 1.79 1.80 1.91 2.10 2.01 2.00 2.13 2.00 2.00 2.35 2.19 1.87 1.85 1.88 1.98 2.23 2.51 2.25
0.54 0.64 0.64 0.70 0.76 0.73 0.87 1.01 1.12 1.18 1.20 1.22 1.26 1.21 1.35 1.46 1.64 1.67 1.62 1.53 1.47 1.62 1.77 1.84 1.85 1.83 1.75 1.82 2.02 1.92 2.03 2.14 2.10 2.13 2.22 2.16 1.98 2.00 2.01 2.08 2.26 2.53 2.49
0.49 0.61 0.62 0.66 0.66 0.66 0.77 0.90 1.05 1.14 1.07 1.11 1.15 1.23 1.32 1.50 1.57 1.53 1.55 1.54 1.54 1.63 1.70 1.79 1.87 1.87 1.87 1.95 2.02 1.90 2.03 2.08 2.18 2.15 2.12 2.09 2.28 2.28 2.09 2.16 2.22 2.42 2.63
0.54 0.59 0.62 0.63 0.56 0.59 0.69 0.80 0.98 1.12 1.15 1.13 1.20 1.30 1.37 1.46 1.53 1.47 1.54 1.68 1.70 1.74 1.77 1.83 1.94 1.89 1.96 2.09 2.02 1.99 2.05 2.09 2.09 2.21 2.38 2.32 2.40 2.33 2.22 2.32 2.33 2.43 2.69
0.58 0.60 0.70 0.65 0.57 0.58 0.65 0.80 1.07 1.28 1.43 1.47 1.42 1.39 1.33 1.40 1.51 1.56 1.61 1.72 1.83 1.90 1.88 1.83 1.86 1.99 2.16 2.19 2.02 2.00 2.01 1.95 1.88 2.02 2.26 2.53 2.89 2.73 2.52 2.39 2.32 2.38 2.48
0.54 0.65 0.75 0.79 0.83 0.82 0.85 0.99 1.18 1.25 1.36 1.34 1.30 1.37 1.39 1.52 1.66 1.71 1.76 1.83 1.85 1.91 1.99 2.02 1.98 1.99 2.03 2.02 2.00 2.06 2.07 2.04 1.91 1.92 2.03 2.18 2.45 2.61 2.71 2.47 2.28 2.35 2.47
0.67 0.72 0.80 0.86 0.93 0.99 0.98 0.99 1.09 1.11 1.24 1.52 1.64 1.75 1.76 1.79 1.91 1.99 1.95 1.99 1.99 1.97 2.14 2.18 2.14 2.09 2.02 1.88 2.05 2.18 2.06 2.10 2.02 1.97 1.93 1.80 1.92 2.09 2.26 2.18 2.42 2.53 2.48
0.77 0.85 0.89 0.93 0.96 1.01 1.11 1.17 1.18 1.21 1.41 1.83 2.08 2.19 2.24 2.28 2.33 2.38 2.37 2.39 2.33 2.43 2.47 2.34 2.26 2.21 1.98 2.10 2.11 2.12 2.11 2.18 2.14 2.06 2.01 1.84 1.73 1.75 1.87 1.93 2.09 2.31 2.34
0.73 0.81 0.96 1.07 1.06 1.08 1.16 1.25 1.33 1.40 1.55 1.84 2.04 2.14 2.26 2.37 2.53 2.57 2.60 2.59 2.60 2.61 2.60 2.64 2.57 2.45 2.47 2.43 2.08 2.00 1.99 2.07 2.08 2.18 2.22 1.86 1.56 1.74 1.71 1.80 1.83 1.78 1.89
0.79 0.90 0.94 1.08 1.17 1.25 1.37 1.59 1.76 1.89 1.94 2.07 2.26 2.37 2.35 2.37 2.45 2.47 2.41 2.43 2.56 2.59 2.54 2.45 2.35 2.32 2.25 2.22 1.95 1.83 1.72 1.81 1.85 1.86 1.88 1.86 1.70 1.62 1.67 1.68 1.58 1.49 1.52
0.93 1.11 1.25 1.28 1.37 1.47 1.61 1.78 2.04 2.17 2.19 2.18 2.36 2.50 2.59 2.66 2.56 2.45 2.48 2.53 2.57 2.43 2.33 2.24 2.23 2.19 2.17 2.18 1.96 1.84 1.66 1.64 1.62 1.62 1.65 1.69 1.59 1.64 1.60 1.50 1.45 1.41 1.36
1.00 1.11 1.30 1.45 1.49 1.65 1.75 1.83 1.96 2.08 2.18 2.17 2.25 2.41 2.51 2.67 2.78 2.71 2.72 2.68 2.60 2.49 2.42 2.34 2.35 2.34 2.34 2.43 2.15 1.99 1.84 1.81 1.79 1.84 1.81 1.77 1.65 1.62 1.52 1.39 1.37 1.27 1.19
1.00 1.04 1.11 1.28 1.39 1.49 1.58 1.75 1.86 1.87 1.97 2.02 2.01 2.16 2.38 2.55 2.67 2.79 2.82 2.83 2.75 2.63 2.44 2.29 2.23 2.23 2.30 2.44 2.26 2.08 1.89 1.88 1.99 2.04 2.08 2.03 1.91 1.59 1.43 1.32 1.24 1.21 1.31
1.04 1.06 1.13 1.22 1.31 1.45 1.68 1.88 1.92 1.90 1.91 1.98 2.08 2.21 2.40 2.49 2.50 2.56 2.64 2.77 2.76 2.69 2.60 2.36 2.17 2.10 2.04 1.99 1.99 1.84 1.74 1.79 1.88 1.98 2.10 2.11 2.00 1.74 1.56 1.40 1.28 1.29 1.25
1.14 1.11 1.15 1.30 1.48 1.66 1.86 2.07 2.09 2.11 2.13 2.17 2.26 2.33 2.41 2.49 2.53 2.52 2.52 2.54 2.52 2.42 2.34 2.21 2.12 2.08 2.03 1.94 1.79 1.58 1.49 1.51 1.56 1.70 2.01 2.12 2.00 1.80 1.55 1.43 1.38 1.26 1.14
1.21 1.18 1.18 1.28 1.47 1.59 1.69 1.88 2.01 2.05 2.19 2.17 2.11 2.10 2.12 2.18 2.24 2.31 2.32 2.32 2.27 2.21 2.13 2.06 2.01 1.93 1.89 1.79 1.69 1.61 1.47 1.40 1.40 1.42 1.62 1.72 1.69 1.54 1.43 1.34 1.23 1.11 1.09
1.29 1.29 1.31 1.36 1.42 1.46 1.51 1.62 1.75 1.88 2.08 2.18 2.14 2.14 2.15 2.15 2.17 2.24 2.30 2.17 2.09 2.11 1.99 1.87 1.92 1.91 1.77 1.73 1.70 1.59 1.49 1.41 1.44 1.42 1.45 1.54 1.62 1.61 1.54 1.51 1.41 1.29 1.20
1.35 1.39 1.44 1.46 1.44 1.43 1.53 1.65 1.79 2.00 2.22 2.23 2.13 2.14 2.20 2.25 2.27 2.27 2.30 2.34 2.13 2.08 1.95 1.85 1.81 1.77 1.68 1.59 1.44 1.39 1.34 1.26 1.23 1.15 1.21 1.39 1.56 1.68 1.69 1.71 1.67 1.54 1.41